This is the latest recevied weather packets stored in our database for station/object WB6ANP. If no packets are shown the sender has not sent any weather packets the latest 1 day(s).
| Time | Temp. | Humidity | Pressure | Rain* | Wind** | Luminosity | Snow |
|---|---|---|---|---|---|---|---|
| 1778124383 | 13.89° C | 79% | 1016.9 hPa | 0 mm | - | 0 W/m² | - |
| 1778124079 | 13.89° C | 79% | 1016.8 hPa | 0 mm | - | 0 W/m² | - |
| 1778123776 | 13.89° C | 79% | 1016.8 hPa | 0 mm | - | 0 W/m² | - |
| 1778123169 | 13.89° C | 79% | 1016.7 hPa | 0 mm | - | 0 W/m² | - |
| 1778122564 | 13.89° C | 78% | 1016.7 hPa | 0 mm | - | 0 W/m² | - |
| 1778122261 | 14.44° C | 78% | 1016.7 hPa | 0 mm | - | 0 W/m² | - |
| 1778121959 | 14.44° C | 78% | 1016.8 hPa | 0 mm | - | 0 W/m² | - |
| 1778121656 | 14.44° C | 77% | 1016.5 hPa | 0 mm | - | 0 W/m² | - |
| 1778121351 | 14.44° C | 77% | 1016.5 hPa | 0 mm | - | 0 W/m² | - |
| 1778121049 | 14.44° C | 76% | 1016.1 hPa | 0 mm | - | 0 W/m² | - |
| 1778120746 | 14.44° C | 76% | 1016.2 hPa | 0 mm | - | 0 W/m² | - |
| 1778120137 | 15° C | 76% | 1016.1 hPa | 0 mm | - | 0 W/m² | - |
| 1778119834 | 15° C | 77% | 1016.1 hPa | 0 mm | - | 0 W/m² | - |
| 1778119228 | 15° C | 76% | 1015.8 hPa | 0 mm | - | 0 W/m² | - |
| 1778118926 | 15° C | 76% | 1015.8 hPa | 0 mm | - | 0 W/m² | - |
| 1778118320 | 15.56° C | 75% | 1015.5 hPa | 0 mm | - | 0 W/m² | - |
| 1778117712 | 15.56° C | 73% | 1015.5 hPa | 0 mm | - | 0 W/m² | - |
| 1778117410 | 15.56° C | 73% | 1015.4 hPa | 0 mm | - | 0 W/m² | - |
| 1778117107 | 16.11° C | 72% | 1015.4 hPa | 0 mm | - | 1 W/m² | - |
| 1778116196 | 16.67° C | 71% | 1014.8 hPa | 0 mm | - | 8 W/m² | - |
| 1778115891 | 16.67° C | 70% | 1014.9 hPa | 0 mm | - | 12 W/m² | - |
| 1778115587 | 16.67° C | 70% | 1014.7 hPa | 0 mm | - | 17 W/m² | - |
| 1778115285 | 17.22° C | 69% | 1014.6 hPa | 0 mm | - | 23 W/m² | - |
| 1778114678 | 17.22° C | 69% | 1014.6 hPa | 0 mm | - | 35 W/m² | - |
| 1778114376 | 17.22° C | 68% | 1014.5 hPa | 0 mm | - | 40 W/m² | - |
* Rain latest hour (hover to see other rain measurements)
** Current wind speed in m/s (hover to see current wind gust speed)